Location: Newark
(50.4348°N, 30.5552°E)
Time: 11:21:30
(UTC+00:00)

Vanguard 3 - Pass Details

Date: 27 January 2020
Orbit: 508 x 3263 km, 33.3° (Epoch: 25 February)

Event Time Altitude Azimuth Distance (km) Brightness Sun altitude
Rises 15:39:49 0° 237° (WSW) 6,975 13.7 -9.4°
Reaches altitude 10° 15:44:42 10° 231° (SW) 6,111 12.8 -10.2°
Maximum altitude 16:02:17 42° 171° (S) 3,979 10.6 -12.9°
Enters shadow 16:16:52 10° 108° (ESE) 5,145 10.7 -15.1°
